Change the Weather History Date:

Sunday, February 10, 2013

  Actual Average Record
Temperature  
Mean Temperature 52 °F 57 °F  
Max Temperature 60 °F 68 °F 80 °F (2008)
Min Temperature 44 °F 47 °F 37 °F (2009)
Degree Days  
Heating Degree Days 13 8  
Month to date heating degree days 71 80  
Since 1 July heating degree days 559 797  
Cooling Degree Days 0 0  
Month to date cooling degree days 5 0  
Year to date cooling degree days 7 4  
Growing Degree Days 2 (Base 50)    
Moisture  
Dew Point 40 °F    
Average Humidity 64    
Maximum Humidity 76    
Minimum Humidity 51    
Precipitation  
Precipitation 0.00 in 0.11 in 0.35 in (2001)
Month to date precipitation 0.35 0.95  
Year to date precipitation 1.30 3.98  
Since 1 July precipitation 4.61  
Snow  
Snow 0.00 in - - ()
Month to date snowfall 0.0  
Year to date snowfall 0.0  
Since 1 July snowfall 0.0  
Snow Depth 0.00 in    
Sea Level Pressure  
Sea Level Pressure 30.06 in    
Wind  
Wind Speed 4 mph (SE)    
Max Wind Speed 8 mph    
Max Gust Speed 12 mph    
Visibility 10 miles    
Events      
T = Trace of Precipitation, MM = Missing Value Source: NWS Daily Summary

Daily Weather History Graph

Daily Weather History Graph

Search for Another Location

Airport or City:

Trip Planner

Search our weather history database for the weather conditions in past years. The results will help you decide how hot, cold, wet, or windy it might be!

Date:

Astronomy

Feb. 10, 2013 Rise Set
Actual Time 6:40 AM PST 5:31 PM PST
Civil Twilight 6:15 AM PST 5:57 PM PST
Nautical Twilight 5:45 AM PST 6:26 PM PST
Astronomical Twilight 5:16 AM PST 6:56 PM PST
Moon 6:37 AM PST (2/10) 6:22 PM PST (2/10)
Length of Visible Light 11h 42m
Length of Day
10h 50m
New Moon, 0% of the Moon is Illuminated
Feb 10
New Moon
Feb 17
First Quarter
Feb 25
Full
Mar 4
Last Quarter
Mar 11
New

Hourly Weather History & Observations

Time (PST) Temp. Windchill Dew Point Humidity Pressure Visibility Wind Dir Wind Speed Gust Speed Precip Events Conditions
12:53 AM 46.0 °F 44.8 °F 37.9 °F 73% 30.11 in 10.0 mi East 3.5 mph - N/A   Clear
1:53 AM 46.0 °F 44.8 °F 37.9 °F 73% 30.09 in 10.0 mi ESE 3.5 mph - N/A   Scattered Clouds
2:53 AM 46.0 °F 43.1 °F 37.9 °F 73% 30.08 in 10.0 mi East 5.8 mph - N/A   Partly Cloudy
3:53 AM 46.9 °F - 39.0 °F 74% 30.08 in 10.0 mi East 4.6 mph - N/A   Overcast
4:53 AM 46.9 °F - 39.0 °F 74% 30.07 in 10.0 mi East 4.6 mph - N/A   Mostly Cloudy
5:53 AM 45.0 °F 43.5 °F 37.9 °F 76% 30.07 in 10.0 mi East 3.5 mph - N/A   Clear
6:53 AM 45.0 °F - 37.0 °F 74% 30.08 in 10.0 mi Calm Calm - N/A   Clear
7:53 AM 48.0 °F - 39.9 °F 74% 30.09 in 10.0 mi East 3.5 mph - N/A   Clear
8:53 AM 53.1 °F - 39.9 °F 61% 30.09 in 10.0 mi East 5.8 mph - N/A   Mostly Cloudy
9:53 AM 55.0 °F - 39.9 °F 57% 30.10 in 10.0 mi Calm Calm - N/A   Overcast
10:53 AM 55.0 °F - 41.0 °F 59% 30.09 in 10.0 mi South 4.6 mph - N/A   Overcast
11:53 AM 55.9 °F - 42.1 °F 60% 30.07 in 10.0 mi South 4.6 mph - N/A   Overcast
12:53 PM 59.0 °F - 41.0 °F 51% 30.04 in 10.0 mi Calm Calm - N/A   Overcast
1:53 PM 57.9 °F - 41.0 °F 53% 30.02 in 10.0 mi SSW 5.8 mph - N/A   Overcast
2:53 PM 57.9 °F - 39.0 °F 49% 30.02 in 10.0 mi SSW 6.9 mph - N/A   Overcast
3:53 PM 57.9 °F - 37.9 °F 47% 30.02 in 10.0 mi Variable 3.5 mph - N/A   Overcast
4:53 PM 55.9 °F - 39.0 °F 53% 30.01 in 10.0 mi SSW 6.9 mph - N/A   Overcast
5:53 PM 55.0 °F - 41.0 °F 59% 30.03 in 10.0 mi WSW 3.5 mph - N/A   Overcast
6:53 PM 54.0 °F - 42.1 °F 64% 30.03 in 10.0 mi SSW 4.6 mph - N/A   Scattered Clouds
7:53 PM 54.0 °F - 42.1 °F 64% 30.05 in 10.0 mi Calm Calm - N/A   Overcast
8:53 PM 53.1 °F - 42.1 °F 66% 30.05 in 10.0 mi Calm Calm - N/A   Partly Cloudy
9:53 PM 52.0 °F - 42.1 °F 69% 30.06 in 10.0 mi Calm Calm - N/A   Mostly Cloudy
10:53 PM 52.0 °F - 43.0 °F 71% 30.06 in 10.0 mi Calm Calm - N/A   Overcast
11:53 PM 52.0 °F - 42.1 °F 69% 30.07 in 10.0 mi Calm Calm - N/A   Overcast